Location: ????????
(60.4333°N, 46.4710°E)
Time: 18:28:56
(UTC+00:00)

DNEPR-1 R/B - Pass Details

Date: 25 November 2020
Orbit: 580 x 1342 km, 64.6° (Epoch: 16 January)

Event Time Altitude Azimuth Distance (km) Brightness Sun altitude
Rises 15:21:17 0° 263° (W) 3,879 9.1 -23.0°
Reaches altitude 10° 15:24:13 10° 267° (W) 2,803 8.0 -23.3°
Maximum altitude 15:30:39 61° 347° (NNW) 982 4.5 -24.1°
Enters shadow 15:31:57 49° 39° (NE) 1,085 4.5 -24.3°
